Regional Weather Roundup
Issued by NWS

Home | Current Version | Previous Version | Text Only | Print | Product List | Glossary Off
Versions: 1 2 3 4 5 6 7 8 9 10 11 12 13 14 15 16 17 18 19 20 21 22 23 24 25 26 27 28 29 30 31 32 33 34 35 36 37 38 39 40 41 42 43 44 45 46 47 48 49 50

000
ASUS43 KBIS 240502
RWRND

NORTH DAKOTA REGIONAL WEATHER ROUNDUP
NATIONAL WEATHER SERVICE BISMARCK ND
1200 AM CDT TUE MAY 24 2016

NOTE: "FAIR" INDICATES FEW OR NO CLOUDS BELOW 12,000 FEET WITH NO
SIGNIFICANT WEATHER AND/OR OBSTRUCTIONS TO VISIBILITY.


NDZ001>003-009>011-017-240600-
NORTHWEST NORTH DAKOTA

CITY           SKY/WX    TMP DP  RH WIND       PRES   REMARKS
WILLISTON      CLEAR     53  39  59 W9        29.76R
MINOT          PTCLDY    54  43  66 CALM      29.74R
MINOT AFB      CLEAR     52  40  64 SW5       29.73R
$$

NDZ018>021-031>035-040>046-240600-
SOUTHWEST NORTH DAKOTA

CITY           SKY/WX    TMP DP  RH WIND       PRES   REMARKS
BISMARCK       CLOUDY    60  46  59 SE5       29.77S
DICKINSON      CLEAR     50  34  54 W5        29.78R
GARRISON         N/A     51  39  63 CALM      29.76R
HETTINGER ARPT CLEAR     43  37  79 NW7       29.81R
$$

NDZ004>008-012>016-024-026-027-054-240600-
NORTHEAST NORTH DAKOTA

CITY           SKY/WX    TMP DP  RH WIND       PRES   REMARKS
GRAND FORKS    CLOUDY    61  49  64 N9        29.71F
GRND FRKS AFB  CLOUDY    64  49  58 E3        29.72S
DEVILS LAKE    CLOUDY    65  47  52 S6        29.74R
$$

NDZ022-023-025-028>030-036>039-047>053-240600-
SOUTHEAST NORTH DAKOTA

CITY           SKY/WX    TMP DP  RH WIND       PRES   REMARKS
FARGO          PTCLDY    67  47  48 CALM      29.70R
JAMESTOWN      PTCLDY    58  52  80 E9        29.71S
$$




USA.gov is the U.S. government's official web portal to all federal, state and local government web resources and services.